Owosso, MI

11:07 AM EDT on March 24, 2017 (GMT -0400)
Owosso

Weather History for KRNP - October, 2013

Change the Weather History Date:

Monday, October 7, 2013

  Actual Average (KFNT) Record (KFNT)
Temperature  
Mean Temperature 54 °F -  
Max Temperature 62 °F 61 °F 88 °F (2007)
Min Temperature 47 °F 41 °F 23 °F (1964)
Degree Days  
Heating Degree Days 10    
Growing Degree Days 4 (Base 50)    
Moisture  
Dew Point 47 °F    
Average Humidity 80    
Maximum Humidity 97    
Minimum Humidity 47    
Precipitation  
Precipitation 0.00 in - - ()
Sea Level Pressure  
Sea Level Pressure 29.82 in    
Wind  
Wind Speed 8 mph (WSW)    
Max Wind Speed 17 mph    
Max Gust Speed 25 mph    
Visibility 10 miles    
Events Rain    
Averages and records for this station are not official NWS values.
T = Trace of Precipitation, MM = Missing Value Source: NWS Daily Summary

Daily Weather History Graph

Daily Weather History Graph

Search for Another Location

Airport or City:

Trip Planner

Search our weather history database for the weather conditions in past years. The results will help you decide how hot, cold, wet, or windy it might be!

Date:

Astronomy

Oct. 07, 2013 Rise Set
Actual Time 7:40 AM EDT 7:06 PM EDT
Civil Twilight 7:12 AM EDT 7:35 PM EDT
Nautical Twilight 6:39 AM EDT 8:08 PM EDT
Astronomical Twilight 6:06 AM EDT 8:40 PM EDT
Moon 10:34 AM EDT (10/7) 8:46 PM EDT (10/7)
Length of Visible Light 12h 22m
Length of Day
11h 25m
Waxing Crescent, 8% of the Moon is Illuminated
Oct 7
Waxing Crescent
Oct 11
First Quarter
Oct 18
Full
Oct 26
Last Quarter
Nov 3
New

Hourly Weather History & Observations

Time (EDT) Temp. Dew Point Humidity Pressure Visibility Wind Dir Wind Speed Gust Speed Precip Events Conditions
12:15 AM 53.2 °F 52.2 °F 96% 29.70 in 10.0 mi SSW 3.5 mph - N/A   Clear
12:35 AM 52.9 °F 52.0 °F 97% 29.70 in 10.0 mi SSW 3.5 mph - N/A   Clear
12:55 AM 52.7 °F 52.0 °F 97% 29.69 in 10.0 mi SSW 3.5 mph - N/A   Clear
1:15 AM 52.7 °F 52.0 °F 97% 29.69 in 10.0 mi SSW 3.5 mph - N/A   Scattered Clouds
1:35 AM 53.4 °F 52.7 °F 97% 29.69 in 10.0 mi SW 6.9 mph - N/A   Mostly Cloudy
1:55 AM 53.8 °F 52.7 °F 96% 29.69 in 10.0 mi SW 8.1 mph - N/A   Overcast
2:14 AM 54.0 °F 52.2 °F 94% 29.69 in 10.0 mi WSW 6.9 mph - N/A   Overcast
2:35 AM 53.8 °F 51.3 °F 91% 29.69 in 10.0 mi WSW 10.4 mph - N/A   Overcast
2:55 AM 53.6 °F 50.9 °F 91% 29.68 in 10.0 mi WSW 10.4 mph 16.1 mph N/A   Overcast
3:14 AM 53.4 °F 50.2 °F 89% 29.68 in 10.0 mi WSW 12.7 mph 21.9 mph N/A   Overcast
3:35 AM 53.2 °F 49.1 °F 86% 29.68 in 10.0 mi WSW 8.1 mph - N/A   Overcast
3:54 AM 53.1 °F 49.3 °F 87% 29.69 in 10.0 mi WSW 9.2 mph - N/A   Overcast
4:15 AM 52.9 °F 49.1 °F 87% 29.69 in 10.0 mi SW 10.4 mph - N/A   Overcast
4:35 AM 52.3 °F 48.2 °F 86% 29.69 in 10.0 mi SW 9.2 mph - N/A   Overcast
4:54 AM 52.0 °F 48.0 °F 86% 29.69 in 10.0 mi SW 9.2 mph - N/A   Overcast
5:15 AM 51.8 °F 46.8 °F 83% 29.69 in 10.0 mi SW 8.1 mph 16.1 mph N/A   Overcast
5:35 AM 50.4 °F 45.7 °F 84% 29.69 in 10.0 mi SSW 6.9 mph - N/A   Scattered Clouds
5:55 AM 49.5 °F 44.8 °F 84% 29.70 in 10.0 mi SW 6.9 mph - N/A   Clear
6:15 AM 48.6 °F 44.1 °F 84% 29.70 in 10.0 mi SW 6.9 mph - N/A   Clear
6:35 AM 47.7 °F 43.9 °F 87% 29.70 in 10.0 mi SW 5.8 mph - N/A   Clear
6:55 AM 47.3 °F 43.7 °F 87% 29.71 in 10.0 mi SW 6.9 mph - N/A   Clear
7:15 AM 47.3 °F 44.1 °F 88% 29.73 in 10.0 mi SSW 9.2 mph - N/A   Mostly Cloudy
7:35 AM 47.7 °F 43.9 °F 87% 29.73 in 10.0 mi SW 6.9 mph - N/A   Overcast
7:55 AM 47.5 °F 43.7 °F 87% 29.73 in 10.0 mi SW 5.8 mph - N/A   Overcast
8:15 AM 47.7 °F 43.9 °F 87% 29.73 in 10.0 mi SW 6.9 mph - N/A   Overcast
8:35 AM 47.7 °F 44.1 °F 87% 29.73 in 10.0 mi SW 6.9 mph - N/A   Overcast
8:55 AM 47.5 °F 43.9 °F 87% 29.73 in 10.0 mi SSW 9.2 mph - N/A   Mostly Cloudy
9:14 AM 48.4 °F 44.2 °F 86% 29.74 in 10.0 mi SSW 8.1 mph - N/A   Scattered Clouds
9:35 AM 49.3 °F 44.1 °F 82% 29.74 in 10.0 mi SW 10.4 mph 16.1 mph N/A   Mostly Cloudy
9:55 AM 50.0 °F 44.4 °F 81% 29.75 in 10.0 mi SW 13.8 mph 19.6 mph N/A   Overcast
10:14 AM 50.2 °F 44.6 °F 81% 29.75 in 10.0 mi SW 10.4 mph 17.3 mph N/A   Overcast
10:35 AM 51.3 °F 45.5 °F 81% 29.75 in 10.0 mi SW 8.1 mph 18.4 mph N/A   Overcast
10:55 AM 51.8 °F 45.7 °F 80% 29.76 in 10.0 mi SW 8.1 mph - N/A   Overcast
11:15 AM 53.2 °F 46.9 °F 79% 29.76 in 10.0 mi SW 12.7 mph 18.4 mph N/A   Overcast
11:35 AM 53.8 °F 47.3 °F 79% 29.76 in 10.0 mi WSW 11.5 mph 16.1 mph N/A   Mostly Cloudy
11:55 AM 54.7 °F 47.7 °F 77% 29.76 in 10.0 mi WSW 11.5 mph 18.4 mph N/A   Mostly Cloudy
12:15 PM 55.4 °F 48.2 °F 77% 29.77 in 10.0 mi WSW 12.7 mph 18.4 mph N/A   Overcast
12:35 PM 55.4 °F 48.4 °F 77% 29.77 in 10.0 mi WSW 12.7 mph 16.1 mph N/A   Overcast
12:55 PM 55.8 °F 48.2 °F 76% 29.78 in 10.0 mi WSW 12.7 mph 21.9 mph N/A   Overcast
1:15 PM 54.5 °F 49.5 °F 83% 29.79 in 3.0 mi WSW 11.5 mph 23.0 mph N/A Rain Rain
1:35 PM 53.6 °F 50.9 °F 91% 29.79 in 4.0 mi WSW 9.2 mph 17.3 mph N/A   Drizzle
1:55 PM 54.0 °F 51.8 °F 92% 29.80 in 5.0 mi WSW 12.7 mph 17.3 mph N/A Rain Light Rain
2:15 PM 54.5 °F 52.7 °F 94% 29.81 in 3.0 mi West 13.8 mph 20.7 mph N/A Rain Rain
2:34 PM 55.0 °F 53.1 °F 93% 29.82 in 7.0 mi WSW 11.5 mph - N/A Rain Light Rain
2:55 PM 56.7 °F 53.6 °F 89% 29.82 in 10.0 mi West 12.7 mph 18.4 mph N/A   Overcast
3:15 PM 59.2 °F 52.0 °F 77% 29.83 in 10.0 mi West 17.3 mph 25.3 mph N/A   Mostly Cloudy
3:34 PM 59.5 °F 51.3 °F 74% 29.85 in 10.0 mi West 11.5 mph 20.7 mph N/A   Mostly Cloudy
3:55 PM 60.6 °F 46.2 °F 59% 29.86 in 10.0 mi West 15.0 mph 25.3 mph N/A   Scattered Clouds
4:15 PM 61.2 °F 46.0 °F 58% 29.87 in 10.0 mi West 12.7 mph 18.4 mph N/A   Scattered Clouds
4:35 PM 61.7 °F 42.8 °F 50% 29.88 in 10.0 mi WNW 16.1 mph 25.3 mph N/A   Scattered Clouds
4:55 PM 60.6 °F 42.4 °F 51% 29.89 in 10.0 mi West 9.2 mph - N/A   Scattered Clouds
5:15 PM 61.9 °F 41.9 °F 48% 29.90 in 10.0 mi WNW 17.3 mph 25.3 mph N/A   Mostly Cloudy
5:35 PM 61.9 °F 42.4 °F 49% 29.91 in 10.0 mi West 17.3 mph - N/A   Scattered Clouds
5:55 PM 62.1 °F 41.4 °F 47% 29.92 in 10.0 mi WNW 15.0 mph 18.4 mph N/A   Mostly Cloudy
6:14 PM 59.7 °F 41.2 °F 50% 29.93 in 10.0 mi West 8.1 mph 20.7 mph N/A   Scattered Clouds
6:35 PM 59.0 °F 40.6 °F 51% 29.94 in 10.0 mi WNW 9.2 mph 17.3 mph N/A   Clear
6:55 PM 57.6 °F 41.2 °F 54% 29.96 in 10.0 mi West 9.2 mph - N/A   Clear
7:14 PM 55.9 °F 42.4 °F 61% 29.97 in 10.0 mi West 5.8 mph - N/A   Clear
7:35 PM 54.5 °F 43.0 °F 65% 29.98 in 10.0 mi WSW 6.9 mph - N/A   Clear
7:55 PM 53.1 °F 43.0 °F 69% 29.99 in 10.0 mi West 5.8 mph - N/A   Clear
8:15 PM 52.0 °F 43.2 °F 72% 30.01 in 10.0 mi WSW 3.5 mph - N/A   Clear
8:35 PM 50.4 °F 43.2 °F 76% 30.02 in 10.0 mi Calm Calm - N/A   Clear
8:55 PM 50.4 °F 43.7 °F 78% 30.03 in 10.0 mi WSW 3.5 mph - N/A   Clear
9:15 PM 50.0 °F 43.7 °F 79% 30.04 in 10.0 mi Calm Calm - N/A   Clear
9:35 PM 47.3 °F 43.7 °F 87% 30.05 in 10.0 mi Calm Calm - N/A   Clear
9:55 PM 47.7 °F 45.0 °F 90% 30.06 in 10.0 mi Calm Calm - N/A   Clear
10:15 PM 48.2 °F 45.0 °F 89% 30.07 in 10.0 mi Calm Calm - N/A   Clear
10:35 PM 47.3 °F 44.1 °F 88% 30.08 in 10.0 mi Calm Calm - N/A   Clear
10:54 PM 48.0 °F 44.6 °F 88% 30.08 in 10.0 mi SSW 3.5 mph - N/A   Clear
11:15 PM 48.6 °F 44.8 °F 87% 30.09 in 10.0 mi SSW 3.5 mph - N/A   Clear
11:35 PM 48.7 °F 45.0 °F 87% 30.09 in 10.0 mi SW 3.5 mph - N/A   Clear
11:54 PM 48.4 °F 44.8 °F 87% 30.10 in 10.0 mi SSW 3.5 mph - N/A   Clear